Wind_Speed
14 13 11 10 10 9 8 8 6 3 4 6 6 5 4 3 2 0 2 3 3 3 5 5 4 6 8 8 7 10 13 15 16 19 21 23 24 25 25 26 26 26 26 27 27 27 26 26 26 26 26 26 27 28 29 30 31 32 33 34 34 34 34 35 35 35 34 34 34 32 31 31 32 33
13 14 13 11 11 11 9 7 6 6 5 6 5 4 4 3 4 4 3 3 5 5 6 6 6 8 8 8 9 10 11 13 15 17 19 21 22 23 23 23 24 24 24 24 24 25 25 24 24 25 26 26 27 29 30 31 31 31 32 32 33 33 33 33 34 34 34 34 34 33 32 32 32 33
14 15 15 14 12 11 10 9 7 7 6 6 7 7 6 5 6 7 6 3 4 7 8 9 10 11 11 12 13 13 13 14 14 16 18 20 20 22 23 23 22 22 22 21 21 22 22 23 24 24 25 26 28 28 28 27 27 27 27 27 28 28 28 29 30 31 32 33 34 33 31 31 31 32
15 16 16 16 14 11 11 11 10 9 8 8 8 8 9 7 8 9 8 6 8 11 12 13 13 13 14 16 15 15 17 17 17 18 18 19 20 20 21 20 20 20 20 21 22 23 23 24 25 25 26 27 26 24 24 25 25 24 23 23 23 24 25 26 26 27 28 29 31 31 32 31 29 29
18 17 17 17 16 14 13 13 12 12 12 10 9 10 11 11 10 10 10 10 12 15 15 14 15 15 16 17 17 17 19 19 18 19 18 18 19 19 20 21 21 21 22 23 24 25 25 25 25 25 25 23 22 23 24 23 22 21 21 22 23 24 24 25 25 26 27 27 27 28 29 30 29 27
20 19 18 17 16 15 15 15 15 15 15 14 12 11 12 13 13 13 14 13 13 16 18 17 17 17 16 17 18 18 19 20 20 20 19 19 19 19 20 21 22 22 23 24 24 23 23 22 22 22 21 21 22 22 20 19 20 22 23 23 23 24 23 23 23 22 23 24 25 25 25 27 28 28
21 21 21 19 17 16 16 17 16 15 15 15 15 14 14 14 13 14 15 16 15 17 20 19 19 19 18 19 20 19 20 21 21 20 20 20 20 20 20 21 22 21 20 20 20 19 19 19 20 20 20 21 20 18 17 20 23 23 22 22 23 24 24 24 23 21 20 20 20 22 22 23 24 26
21 21 22 21 20 18 18 18 17 17 16 15 16 16 15 15 14 13 13 16 17 18 19 20 20 19 19 21 21 21 22 22 20 20 21 22 22 20 19 19 18 17 18 18 19 18 18 18 19 20 19 18 17 17 20 23 22 21 21 22 22 22 21 20 20 20 20 19 18 19 20 20 19 20
23 22 22 21 20 20 20 19 18 18 18 17 17 17 16 16 16 14 14 15 16 17 19 21 21 20 21 23 23 22 22 22 20 20 21 21 20 18 16 15 15 18 20 19 18 18 18 19 19 18 17 16 18 21 22 21 20 20 21 21 21 20 20 20 20 20 20 19 18 18 19 18 17 16
25 24 23 22 20 20 22 22 21 20 19 18 18 19 18 17 16 17 17 16 16 17 19 21 22 22 22 23 24 23 20 19 20 22 23 19 16 15 15 15 19 21 19 18 18 19 20 20 18 16 16 18 20 21 20 19 20 21 21 21 22 22 22 21 20 19 19 19 18 18 19 18 16 14
29 27 26 24 23 21 21 23 23 23 22 21 20 20 20 19 18 19 18 18 18 18 19 20 22 23 23 23 24 23 20 18 19 21 21 18 16 18 20 20 21 19 17 19 21 21 20 19 16 16 18 19 19 18 18 19 20 20 21 22 22 22 22 21 20 19 18 17 17 17 17 17 17 15
31 30 29 27 26 24 22 22 22 22 22 21 22 21 20 20 20 20 20 20 20 20 20 21 22 22 24 24 24 23 21 19 19 17 14 15 18 22 23 21 19 17 18 22 23 22 20 17 15 17 18 17 18 18 19 19 20 21 22 22 22 22 22 21 20 20 19 19 17 16 15 16 16 16
31 31 30 29 27 26 24 23 22 22 22 22 23 22 22 22 21 22 22 21 21 20 20 21 22 21 23 25 24 22 21 19 18 15 13 16 19 21 22 21 18 16 19 23 24 22 19 17 16 17 16 17 20 19 18 20 21 22 22 22 23 23 22 22 22 21 20 19 18 16 14 14 15 16
32 31 31 30 29 28 27 26 25 24 23 23 24 24 23 23 23 23 24 23 22 21 21 22 22 19 22 25 23 22 22 21 19 17 17 18 18 18 19 20 19 16 18 23 25 21 17 15 15 14 15 19 20 16 17 21 23 22 22 22 23 24 25 26 25 23 21 19 18 17 15 14 15 16
33 33 32 32 32 31 29 28 27 26 24 24 24 24 24 24 25 25 25 25 24 22 22 22 21 19 22 26 25 23 25 23 20 19 16 15 16 15 14 15 17 17 18 22 24 19 15 13 13 13 17 21 17 13 18 22 21 20 21 23 25 27 30 30 28 25 21 18 17 16 15 14 14 15
34 33 33 33 33 32 32 31 30 28 27 25 24 25 25 25 26 27 28 27 26 24 23 23 22 21 23 26 27 26 25 22 19 18 16 15 16 15 14 15 17 18 20 20 19 16 13 12 13 16 20 18 12 12 19 21 20 21 23 25 28 31 33 32 29 25 20 16 15 14 14 13 13 14
36 35 34 33 33 33 32 32 31 30 28 27 27 27 28 28 29 30 31 31 30 28 26 25 25 26 25 26 28 27 24 22 19 17 17 17 16 16 17 18 19 20 19 16 13 11 11 12 15 18 19 14 9 13 20 20 19 21 24 27 31 34 34 31 27 25 21 17 15 14 13 12 12 13
36 36 35 34 34 34 33 32 32 31 30 29 29 29 30 29 29 29 31 32 32 31 30 29 29 29 27 28 28 25 23 23 21 18 18 18 17 18 19 19 19 18 15 11 9 8 8 12 16 18 16 9 6 14 20 19 19 22 25 29 33 34 33 29 26 24 22 20 17 15 14 13 12 13
37 37 36 36 36 35 35 34 33 32 31 31 31 31 30 30 29 29 29 30 31 31 31 31 31 29 28 27 25 22 21 22 21 20 19 18 18 18 18 20 20 15 10 9 9 6 6 12 17 18 14 6 5 14 19 18 20 23 26 31 34 33 31 28 25 24 23 23 21 18 15 13 13 13
37 37 37 37 37 37 37 36 35 34 33 32 32 32 31 31 30 30 29 28 29 30 30 30 29 27 25 23 21 20 21 22 22 21 20 20 19 17 16 19 18 12 8 9 9 5 5 10 15 16 11 4 4 15 19 18 20 23 27 32 34 32 30 27 25 25 25 26 25 21 17 14 12 13
38 38 38 38 38 38 38 38 37 35 33 33 32 32 31 31 31 31 31 29 28 28 28 27 25 24 22 20 20 21 22 23 23 22 21 22 20 15 13 14 14 11 9 8 7 6 6 8 11 14 10 3 5 14 18 18 21 25 29 32 33 32 30 27 25 26 28 28 26 23 20 16 12 11
38 39 39 39 39 39 40 39 38 36 34 34 34 33 32 31 32 33 33 31 28 26 25 24 23 22 21 19 19 19 20 21 23 23 23 22 19 16 14 13 13 12 8 7 6 6 5 7 11 13 9 3 5 14 17 17 21 26 30 32 32 32 31 28 27 28 30 29 25 22 22 21 16 11
38 39 40 40 40 40 41 40 38 36 35 34 35 35 33 31 32 34 33 30 28 26 23 22 21 20 19 18 18 17 17 18 19 19 20 20 18 19 19 16 12 7 4 4 6 5 4 7 11 13 9 2 3 12 16 17 22 28 31 32 32 32 32 30 29 30 30 28 24 21 22 24 22 16
36 38 39 41 41 42 42 41 39 37 35 35 35 35 32 32 34 34 31 29 27 25 23 21 20 20 19 17 16 15 14 14 14 15 16 17 18 20 20 17 12 7 4 3 5 3 3 6 10 12 10 3 2 10 14 15 21 28 30 31 32 32 32 31 31 31 30 26 23 21 22 24 24 20
36 36 39 41 42 42 41 40 39 37 35 35 34 35 34 35 34 32 29 28 26 23 22 21 20 19 18 15 13 12 11 11 12 14 15 16 16 16 14 12 10 8 6 4 3 1 4 8 11 11 10 6 5 10 12 13 19 26 28 28 28 30 32 31 31 32 29 25 22 21 22 23 23 21
37 37 39 41 42 42 41 40 39 36 34 32 31 33 34 34 33 31 29 27 24 22 21 20 20 19 17 16 14 13 11 10 12 14 15 13 11 9 7 8 7 6 5 3 1 2 4 9 11 11 9 7 7 10 12 13 18 24 26 25 24 28 30 30 31 32 29 25 23 21 21 21 20 19
39 39 40 41 42 41 41 41 40 39 36 33 32 31 31 30 29 28 27 25 23 21 21 20 20 20 19 19 18 16 14 12 12 12 12 10 9 8 6 5 5 4 4 4 5 3 4 8 10 10 8 7 7 9 11 12 16 23 27 24 21 24 28 28 30 31 28 25 24 24 22 20 19 18
40 40 41 41 42 41 40 40 40 40 39 38 37 36 34 31 29 28 27 25 23 21 21 21 22 22 22 21 21 20 18 15 13 13 12 10 10 8 5 4 3 4 5 7 7 4 4 8 10 8 7 7 8 8 7 9 14 21 26 25 21 22 26 28 28 29 28 25 25 27 27 25 23 20
42 42 42 41 41 40 39 38 37 37 36 35 34 33 32 31 32 31 28 25 23 22 23 24 24 25 25 24 24 23 19 14 16 16 14 12 10 6 5 5 6 7 8 8 7 5 4 8 10 8 6 7 8 7 5 7 12 16 21 24 21 19 23 26 27 28 29 27 25 26 28 28 26 23
43 42 41 40 39 39 39 37 36 34 33 30 29 28 28 29 30 29 27 25 24 25 26 27 27 28 27 25 24 20 14 15 19 18 15 13 9 7 8 10 11 12 11 9 7 5 5 7 10 8 7 7 7 5 4 6 10 12 15 19 20 18 20 24 25 26 28 26 24 24 25 25 25 23
44 41 40 39 38 38 36 34 33 31 29 28 27 27 28 29 29 28 27 26 27 27 28 28 28 27 26 23 20 16 14 17 20 17 15 12 9 10 13 14 16 15 13 11 8 5 4 6 8 8 8 8 6 2 3 5 8 11 12 15 17 16 19 22 22 23 25 25 23 23 24 25 26 24
43 39 37 35 34 33 32 31 30 29 28 28 28 28 28 28 28 28 27 26 27 28 28 27 26 25 23 20 17 14 16 19 19 16 13 10 9 12 15 16 17 17 15 13 9 6 4 5 7 8 9 9 5 1 2 3 6 9 10 12 14 15 17 20 20 21 23 24 24 24 25 26 27 25
39 35 33 31 30 29 29 28 28 27 26 25 24 25 25 25 27 28 27 27 27 27 26 26 25 24 22 18 15 15 18 19 16 14 12 10 9 13 15 16 16 17 17 14 11 7 4 3 5 7 8 8 5 1 2 3 4 6 8 10 12 14 16 17 18 19 22 23 24 24 24 25 26 26
33 30 30 29 29 28 28 27 26 25 23 21 20 20 20 22 23 25 26 28 28 27 27 27 26 24 22 18 16 18 19 17 15 14 10 8 9 13 15 16 15 15 16 15 12 9 6 4 4 5 5 4 2 2 3 4 3 4 6 7 9 13 14 14 15 17 19 20 21 22 23 24 25 25
32 30 29 28 28 27 27 26 26 25 22 21 20 18 17 19 20 21 24 26 26 27 27 25 22 20 20 19 18 18 19 18 17 14 9 8 11 12 14 15 14 14 15 16 14 10 8 6 4 3 2 1 2 4 4 5 5 3 4 5 7 10 12 13 13 15 16 17 18 18 20 22 25 25
32 31 29 28 28 28 28 29 30 28 27 25 23 21 20 19 18 18 21 25 26 27 27 23 18 17 18 19 19 20 21 21 19 15 12 12 12 9 8 10 11 13 15 15 13 12 11 8 5 4 4 4 3 4 4 4 5 5 4 4 5 7 9 11 12 13 14 15 16 16 17 19 22 24
31 30 28 27 25 24 25 26 25 24 25 24 23 22 20 18 16 17 24 28 29 28 26 23 20 18 19 21 22 22 23 22 19 17 15 14 11 8 7 9 11 13 13 13 13 14 13 11 9 8 7 5 3 4 5 5 6 8 7 5 4 5 7 9 10 11 12 13 13 13 13 14 17 20
25 19 16 14 12 12 16 18 19 20 21 19 18 18 20 20 20 24 29 29 27 25 23 22 21 21 21 23 24 24 24 22 20 20 19 15 13 13 14 14 14 14 14 13 14 16 15 13 11 11 10 9 6 4 5 5 6 7 8 6 5 4 5 8 9 10 11 11 11 10 10 11 13 16
22 18 16 17 20 23 27 29 29 28 26 22 20 21 25 28 29 29 28 25 22 22 22 22 22 21 21 22 23 23 23 21 20 21 20 18 18 21 20 17 15 15 15 14 15 17 17 16 14 14 14 13 9 6 6 7 7 7 7 8 7 6 5 6 7 8 9 9 9 9 8 8 9 11
30 29 28 30 34 37 36 33 29 26 25 24 25 27 30 32 32 30 29 26 23 21 22 22 22 21 21 22 22 22 21 20 20 20 20 20 22 23 22 18 15 15 16 16 16 18 19 19 17 16 15 13 11 9 9 9 9 10 11 11 10 9 7 6 6 6 7 7 8 8 7 6 6 8
34 31 30 32 34 34 31 27 25 24 23 24 27 30 31 31 30 29 28 27 25 23 23 22 22 21 22 22 21 21 21 20 20 20 20 20 20 22 22 19 15 15 17 16 16 17 18 17 15 15 15 15 13 10 9 9 11 13 13 13 13 12 9 7 6 5 5 5 6 7 7 6 5 6
31 28 27 29 30 27 24 25 26 24 23 24 27 30 31 29 26 24 24 25 25 24 23 22 21 21 21 21 20 20 20 20 20 20 20 18 19 22 23 19 16 16 17 16 15 15 15 15 15 17 19 20 17 14 12 13 15 16 15 13 14 14 12 10 7 5 4 3 4 5 5 5 5 4
25 24 23 26 26 24 23 27 30 28 27 27 28 29 29 27 24 23 24 25 25 24 24 23 22 22 21 21 20 20 18 17 18 18 18 19 22 23 22 19 17 16 16 16 16 15 15 16 17 19 21 22 21 19 18 18 19 20 19 17 15 15 14 12 9 7 5 4 3 3 3 3 3 3
22 22 22 22 23 23 25 27 29 29 29 29 28 28 27 26 24 24 25 25 24 24 24 23 23 22 21 20 20 17 15 14 14 14 13 16 19 19 17 17 16 14 12 12 12 12 11 13 15 17 21 23 23 22 22 22 22 22 21 19 17 17 17 15 12 10 8 6 4 3 3 2 2 3
23 23 22 20 21 24 26 27 28 29 31 32 31 28 25 23 22 22 23 23 21 21 21 21 21 21 20 20 19 17 14 13 14 13 12 12 12 11 11 11 11 10 8 7 6 5 5 5 6 9 14 19 20 20 20 21 22 22 22 20 19 20 19 18 15 13 11 8 6 5 5 3 2 1
Wind_Direction
211 217 232 249 251 247 253 258 259 242 200 198 200 216 222 182 158 193 307 301 265 284 332 327 316 347 354 338 309 283 280 284 293 302 304 304 307 310 313 313 313 313 312 312 312 312 312 311 312 313 315 315 315 315 314 312 310 308 306 304 303 300 297 293 289 286 283 277 272 272 272 272 270 266
222 223 229 241 244 241 250 253 239 233 225 221 230 247 256 237 206 193 209 267 268 273 312 323 315 322 329 330 323 308 302 301 300 304 307 309 311 313 315 314 313 314 313 313 314 314 314 314 315 316 317 318 320 321 321 320 319 317 316 314 312 309 306 302 296 292 289 282 275 271 272 274 270 264
229 230 230 236 240 239 243 240 231 235 239 246 254 255 256 249 237 225 211 221 270 276 297 313 316 321 323 325 324 321 321 319 313 312 312 311 312 312 312 314 314 316 316 317 318 319 320 320 321 322 323 326 328 329 329 329 329 328 327 325 323 320 318 314 307 302 298 291 282 273 272 276 274 268
229 234 234 234 235 237 239 235 232 238 243 245 248 249 252 250 245 240 224 221 261 282 294 304 313 321 321 320 323 324 327 328 325 320 316 314 314 315 317 319 321 323 323 323 324 325 325 325 326 327 328 330 332 334 336 336 336 336 335 334 333 332 330 327 322 316 311 305 294 282 275 275 274 272
226 232 235 235 234 234 239 239 236 239 242 245 246 244 248 251 249 245 236 236 262 285 295 300 308 315 316 315 318 322 323 326 327 324 323 323 321 321 321 322 325 327 327 327 326 327 328 329 330 330 331 332 335 338 339 340 341 342 342 342 341 341 339 336 333 328 324 318 310 297 286 278 272 271
225 229 235 236 232 232 239 241 242 244 244 245 246 244 246 254 257 254 250 247 257 278 290 297 302 306 310 310 314 319 320 322 325 323 323 324 322 321 322 324 327 328 328 328 328 329 331 333 334 335 336 337 338 341 345 350 352 351 351 351 350 348 346 344 340 335 332 328 322 313 302 291 279 269
226 229 234 236 231 233 241 242 242 246 246 244 244 245 247 256 263 261 257 253 253 267 282 291 296 302 308 308 310 315 315 317 320 319 320 322 322 324 326 327 326 327 331 333 333 334 335 337 339 339 339 342 347 355 1 0 358 358 357 355 352 348 344 341 338 334 331 329 327 323 316 307 293 277
229 230 234 236 233 235 242 244 242 244 247 246 245 245 249 254 261 263 258 257 258 262 272 283 290 298 303 304 306 310 312 315 317 316 319 322 324 327 329 329 329 331 335 337 337 339 342 342 342 343 347 354 4 9 5 2 2 1 359 355 352 350 347 345 344 341 337 330 324 323 322 319 311 295
233 233 236 239 237 237 241 243 243 243 247 249 248 247 251 253 258 262 261 261 262 261 267 277 287 295 297 299 303 307 311 314 314 315 321 324 326 328 331 332 333 333 336 340 343 346 347 346 348 353 1 10 12 9 6 5 5 3 2 1 1 1 0 359 358 357 354 347 337 329 325 324 323 314
237 237 239 242 242 240 241 242 243 244 246 249 250 250 252 253 256 262 264 264 265 264 267 275 284 290 293 297 301 306 311 312 311 316 321 325 329 331 331 332 334 336 341 348 351 349 349 352 357 5 11 12 12 13 11 7 6 6 6 5 5 6 7 7 6 6 4 0 354 346 339 334 331 325
239 240 242 245 247 246 245 245 245 246 248 249 252 255 256 257 259 262 264 265 265 266 269 273 279 285 291 294 296 302 306 305 308 315 320 325 329 328 327 331 337 342 347 352 353 352 354 359 6 12 14 16 20 19 11 5 6 8 6 5 5 5 6 6 6 6 5 4 1 355 349 345 341 335
240 241 244 246 248 249 249 249 248 249 250 252 254 257 258 260 262 264 265 266 267 268 270 273 277 283 288 290 292 298 301 303 309 316 317 319 322 324 325 330 340 345 347 349 351 354 359 3 9 14 18 23 24 15 6 7 10 8 4 3 2 2 2 3 4 5 5 5 3 358 352 347 346 343
241 241 243 245 247 249 251 253 254 254 255 256 257 258 258 259 260 262 264 264 265 267 268 272 276 280 284 287 291 296 299 304 309 310 307 309 316 323 324 327 337 345 345 345 347 353 1 2 8 18 21 20 16 8 6 11 11 6 4 3 3 2 1 1 1 1 1 1 0 357 352 348 348 347
239 240 242 244 247 249 251 254 256 257 257 257 257 258 258 258 258 259 260 260 261 263 264 268 272 275 279 284 289 293 298 303 305 302 303 307 315 323 324 326 335 344 345 341 341 351 3 2 8 21 17 11 13 13 15 14 9 6 6 5 4 2 360 357 355 355 355 354 354 352 350 349 351 352
239 240 241 243 245 248 250 252 254 256 257 255 255 257 257 256 257 257 257 258 258 259 260 265 269 268 273 283 289 292 297 303 305 304 305 307 313 322 322 319 325 335 342 338 336 346 1 2 8 14 8 9 19 23 18 12 7 7 8 6 4 2 359 357 355 355 356 354 351 348 346 346 350 354
240 240 241 242 244 246 248 249 251 254 255 254 253 255 256 257 258 258 258 258 258 258 259 263 265 266 272 282 289 293 298 304 308 309 309 309 312 317 314 307 311 323 334 333 332 341 352 354 358 1 3 12 28 25 14 10 9 10 8 5 4 2 360 359 360 2 4 1 356 352 348 346 347 350
238 240 240 241 243 245 246 247 249 251 253 253 254 256 258 258 258 258 259 259 260 260 261 261 265 270 274 280 289 297 300 300 303 305 307 310 311 310 308 305 307 317 327 330 332 336 339 342 348 356 4 17 32 17 10 11 12 10 7 5 3 1 1 2 4 9 11 8 3 359 355 352 348 347
237 239 239 240 242 244 245 245 246 247 249 251 253 256 258 259 259 259 258 258 257 258 258 259 265 272 277 281 291 300 300 297 297 299 301 304 305 303 303 302 303 312 321 329 334 333 331 336 343 354 9 28 31 10 9 12 12 9 7 4 1 0 3 5 7 11 14 12 7 1 356 355 353 350
238 239 240 241 242 244 245 246 246 246 247 249 251 255 257 258 260 260 259 258 257 256 257 259 265 272 279 284 290 295 295 295 296 296 297 299 298 298 297 297 301 309 317 322 330 336 338 341 343 353 13 44 18 4 9 12 11 9 7 3 1 2 6 8 11 15 16 14 10 3 356 352 353 355
238 240 240 241 243 244 246 248 248 248 248 249 250 253 255 257 259 261 262 262 261 260 260 262 265 272 279 283 284 285 287 289 290 292 294 293 292 289 287 292 300 310 312 314 326 345 359 355 348 352 12 53 5 3 10 11 11 10 7 4 3 6 11 13 14 17 17 14 12 9 2 353 346 348
238 240 241 242 243 244 246 249 249 248 247 247 248 250 253 257 260 263 265 266 265 264 263 262 264 269 273 275 277 280 282 282 283 283 281 284 288 283 279 286 295 303 301 301 323 351 9 12 1 359 14 39 357 7 12 10 9 9 6 4 5 8 13 16 15 17 16 14 14 15 11 3 347 337
239 240 241 242 243 245 247 249 250 248 246 245 246 249 251 255 258 262 265 266 267 266 263 260 261 264 268 274 280 283 281 278 277 274 272 278 283 276 272 277 285 292 285 278 314 351 14 18 13 13 20 14 357 14 15 7 8 8 4 4 6 9 13 17 18 18 15 14 17 19 15 9 359 344
239 240 242 243 243 245 248 250 250 250 247 246 247 249 249 250 254 259 262 264 266 266 263 262 261 261 266 275 280 282 278 272 269 266 266 272 273 269 271 274 277 279 251 260 317 351 31 25 20 23 26 9 346 11 12 6 7 7 3 2 5 8 10 15 19 20 16 14 17 20 16 12 7 359
238 239 241 242 243 244 247 249 250 250 248 247 248 248 245 245 251 256 259 261 263 264 264 263 261 261 267 273 274 273 271 266 261 257 260 267 269 269 271 269 263 251 226 266 322 357 74 44 30 30 36 56 357 3 8 9 8 6 3 3 4 6 8 12 17 19 17 16 17 18 18 15 13 11
236 237 239 241 242 243 244 246 248 249 248 247 247 246 245 247 252 255 257 259 261 262 263 262 260 262 265 263 259 259 261 260 260 260 262 266 267 266 263 253 240 228 226 258 311 57 92 57 38 34 44 58 27 5 8 11 8 6 6 6 7 8 9 11 15 16 16 17 16 16 18 16 15 20
235 237 239 241 243 244 243 243 244 245 246 244 244 245 246 249 252 253 255 258 258 259 260 258 257 257 254 250 250 253 259 267 266 261 259 259 257 247 233 228 228 227 226 218 176 139 94 63 44 38 49 56 34 19 14 8 4 4 7 11 14 14 12 13 15 15 16 19 17 15 17 15 13 20
236 238 239 242 245 246 245 244 244 244 245 244 243 244 244 246 249 251 253 255 256 256 256 252 251 250 248 250 252 255 266 274 263 247 239 233 227 218 213 229 247 244 215 165 142 135 89 66 50 43 49 53 45 36 23 7 358 359 4 12 18 18 16 16 17 17 17 20 21 19 18 17 12 13
237 238 241 244 246 247 247 247 247 247 248 248 249 250 250 250 251 251 252 253 252 251 248 245 246 249 250 252 255 263 273 271 245 227 219 209 207 210 217 235 225 183 156 142 137 127 76 58 49 46 48 50 55 54 31 6 359 358 2 8 17 21 19 17 19 20 20 21 24 24 22 19 15 10
238 240 243 246 248 249 250 250 250 250 250 252 254 255 256 255 254 251 249 248 245 242 242 243 247 251 254 259 264 272 274 255 227 217 210 202 202 205 200 187 166 145 136 138 137 119 72 48 42 45 53 58 65 67 38 4 3 4 4 5 9 16 19 18 19 21 22 25 28 29 26 21 18 15
239 241 244 247 249 250 251 250 249 250 253 255 256 255 255 255 254 250 245 241 238 238 242 246 250 256 263 269 271 272 261 231 218 214 208 201 198 193 183 166 147 135 134 139 133 109 71 44 38 44 65 76 75 64 30 5 5 13 14 10 9 10 13 17 20 21 23 27 32 34 32 27 22 20
238 240 243 246 248 249 249 249 250 251 253 254 254 253 253 252 252 251 247 242 240 241 245 250 256 264 270 272 270 262 238 217 212 210 208 203 187 175 173 161 145 139 140 140 132 113 80 51 40 43 62 78 85 61 4 357 3 15 22 20 16 10 6 13 20 22 22 27 33 35 33 30 26 23
237 238 241 243 244 245 245 245 246 246 246 247 250 253 254 253 251 248 244 240 240 243 248 253 260 265 267 267 264 249 226 215 210 205 204 201 181 169 168 159 148 147 148 147 143 133 105 67 51 45 51 64 77 74 314 331 356 16 23 23 19 11 6 12 19 20 19 23 30 34 32 29 26 24
234 234 237 239 239 241 241 241 240 239 239 239 242 245 249 249 246 240 235 233 236 241 245 249 252 254 254 255 251 235 220 215 208 198 196 195 179 171 168 161 156 159 160 157 154 155 144 102 63 48 48 56 57 9 299 301 334 8 18 19 17 12 9 14 19 18 17 17 22 28 30 28 26 23
231 230 233 235 235 236 235 233 231 229 227 225 226 230 235 240 238 232 228 229 232 236 240 242 244 245 244 241 234 221 211 203 193 186 189 188 177 174 171 164 162 170 171 165 165 171 171 147 94 60 53 55 29 293 275 277 297 346 8 12 14 11 9 12 18 20 18 16 16 19 23 25 25 22
226 227 229 231 233 233 231 230 228 226 223 221 219 218 224 229 226 218 219 224 227 231 236 239 241 242 239 231 219 208 198 189 181 178 180 179 178 179 176 170 169 176 175 171 174 183 190 181 146 107 103 234 278 277 266 262 266 289 334 355 7 9 7 9 15 19 19 18 16 15 16 19 19 18
224 225 225 227 230 230 230 232 230 227 225 223 218 214 215 212 204 207 220 226 225 228 231 231 228 231 228 217 207 200 192 186 181 181 183 181 177 176 180 182 184 186 183 181 187 194 197 194 177 164 183 214 256 278 269 260 258 259 276 313 344 2 5 6 12 17 18 17 15 13 13 14 15 15
224 225 225 227 231 233 235 238 238 233 230 223 215 214 212 197 189 215 234 231 224 224 226 223 219 220 217 210 204 197 190 186 186 187 183 174 166 174 201 208 205 204 200 197 199 201 201 199 195 191 191 192 221 267 267 256 252 251 253 270 307 344 357 0 8 17 19 17 14 10 8 8 13 15
225 226 223 226 242 254 257 257 252 246 243 234 218 214 213 204 211 232 236 229 225 226 225 219 214 209 205 203 200 193 187 187 189 186 179 174 179 192 198 201 208 217 218 210 205 206 206 206 207 207 203 199 207 245 256 244 243 247 246 253 276 311 336 346 360 15 19 17 12 5 359 1 10 16
217 215 210 213 224 232 237 240 237 235 237 233 220 213 212 214 221 228 224 217 219 223 217 209 201 193 192 195 193 188 186 189 190 184 180 185 194 195 191 193 205 216 218 214 210 209 210 214 219 222 223 221 224 244 260 258 259 261 254 253 265 280 299 323 347 10 18 15 8 359 349 347 0 13
216 216 214 217 222 225 227 231 231 231 231 225 215 212 215 216 217 217 213 207 205 204 201 196 191 188 189 189 187 187 191 195 194 190 188 192 197 195 191 193 202 208 210 213 215 214 217 224 229 233 239 244 244 249 262 271 273 270 263 258 259 263 269 290 325 358 13 9 1 351 340 331 339 1
217 215 215 220 225 226 226 229 233 233 228 216 206 207 214 215 211 208 208 204 196 193 194 194 192 190 189 187 186 190 196 199 200 199 198 199 202 199 193 193 198 202 205 211 218 222 227 233 238 240 246 250 246 242 249 262 271 277 278 267 256 253 255 266 292 331 358 359 350 344 334 319 318 346
217 216 216 220 226 227 227 230 232 226 212 200 196 200 208 211 205 198 198 197 193 192 192 189 187 188 189 190 194 197 198 199 202 203 204 204 202 197 194 195 201 205 207 213 224 233 239 244 246 245 243 242 238 233 234 246 262 276 284 275 257 248 247 250 264 290 320 336 341 342 333 320 316 338
215 215 215 217 220 222 223 224 220 208 194 189 193 198 203 205 198 190 190 191 190 191 191 189 187 187 188 190 194 196 197 199 201 205 209 208 201 197 198 203 209 214 220 226 235 245 251 252 251 249 244 239 234 231 235 247 260 270 275 274 264 252 244 243 251 265 277 289 305 320 325 321 321 335
207 207 208 208 206 205 206 204 196 186 180 179 184 189 193 194 193 191 192 192 192 194 197 195 192 190 188 187 187 187 189 195 197 198 202 202 199 199 204 210 214 219 227 233 238 246 253 254 255 252 246 239 234 232 237 247 257 266 271 273 268 258 248 243 245 252 258 265 268 269 278 286 300 330
194 192 191 186 178 177 180 178 172 169 168 168 171 175 180 183 186 188 188 188 187 188 189 188 186 185 185 184 182 176 170 173 177 176 173 175 177 180 184 189 192 193 195 203 211 218 228 242 252 254 249 243 239 240 246 252 260 269 274 275 270 263 254 246 245 248 252 258 260 254 252 253 256 314
Height
861 861 861 861 861 861 862 862 862 861 861 861 861 861 861 862 864 865 865 862 858 858 857 857 856 855 854 853 853 852 852 852 852 851 850 850 848 847 847 845 845 844 843 843 842 841 841 840 839 838 837 836 834 833 831 830 828 826 824 823 822 820 820 819 817 817 817 817 817 817 816 816 817 818
860 860 860 860 860 860 860 861 861 861 861 861 861 861 860 860 861 863 864 863 858 857 857 856 855 855 854 854 853 852 852 852 851 850 850 849 848 846 845 844 843 842 841 841 840 839 839 838 837 836 835 833 832 830 829 827 825 823 822 820 819 817 816 815 814 812 812 811 811 812 812 812 812 813
859 859 859 859 859 859 859 859 860 860 860 860 860 860 860 860 860 860 861 862 859 856 856 855 855 854 854 853 853 852 851 851 850 849 848 847 846 845 844 843 842 841 840 839 838 837 837 836 835 834 833 831 830 828 827 825 823 821 820 818 816 815 813 812 810 809 808 807 807 808 809 809 808 809
857 858 858 858 858 858 858 858 859 859 859 859 859 860 859 859 859 859 860 860 858 856 855 855 854 854 853 852 852 851 850 850 849 848 847 846 845 844 843 841 840 839 838 837 837 836 835 834 833 832 831 830 829 827 825 823 821 819 817 816 814 813 811 809 808 806 805 804 803 804 804 804 804 805
856 856 856 856 857 857 857 857 858 858 858 858 858 859 859 858 859 858 858 858 856 855 855 854 853 853 852 851 850 850 849 849 848 847 846 845 844 843 842 840 839 838 837 836 835 834 833 832 831 830 830 829 827 825 823 821 819 817 816 814 812 811 809 807 806 804 803 801 801 800 800 799 800 801
854 854 854 855 855 856 856 856 856 856 857 857 857 857 857 857 857 857 857 857 856 854 853 853 852 851 851 850 849 849 849 848 847 846 845 844 843 842 841 839 838 837 836 835 834 833 832 831 830 829 828 827 825 824 822 820 818 816 814 813 811 809 807 805 804 802 800 799 798 797 796 795 795 797
852 852 853 853 853 854 854 854 855 855 855 855 855 855 856 856 856 856 856 856 855 854 852 851 851 850 850 849 848 848 848 847 846 845 844 843 842 841 840 839 837 836 835 834 833 832 831 830 829 828 827 826 824 822 821 819 817 815 813 811 809 807 806 804 802 800 798 796 795 794 793 792 792 792
850 850 850 851 852 852 852 852 853 853 853 854 854 854 854 854 854 854 855 854 854 853 851 850 849 849 848 847 847 847 846 846 845 844 843 841 840 839 839 838 836 835 834 833 832 831 830 829 828 827 826 825 823 822 820 818 816 814 812 810 808 806 804 802 800 798 796 794 792 791 790 789 788 788
848 848 848 849 850 851 851 851 851 851 852 852 852 852 852 852 853 853 853 853 853 852 851 849 848 848 847 846 845 846 845 844 843 843 842 841 839 838 838 837 836 835 833 832 831 830 829 828 827 826 825 824 823 821 819 817 815 813 811 809 807 805 803 801 799 797 794 792 791 789 787 786 785 784
846 846 846 847 848 848 848 848 849 849 850 850 850 850 850 851 851 851 851 851 851 851 850 848 847 846 846 845 844 844 844 843 842 841 840 839 838 837 837 836 835 834 832 831 831 829 828 827 826 825 825 823 822 820 818 816 815 813 810 808 806 803 801 799 797 795 793 791 789 788 786 784 783 782
844 844 844 845 845 846 846 846 847 847 848 848 848 848 849 849 849 849 849 850 850 849 848 847 846 845 845 844 843 843 843 843 842 840 838 837 837 836 835 835 835 833 832 831 830 829 828 827 826 825 824 823 821 820 818 816 814 812 809 807 805 803 800 798 796 794 792 790 788 787 785 783 782 780
841 842 842 843 843 843 844 844 844 845 845 846 846 846 847 847 847 847 847 848 848 847 847 846 845 844 843 842 842 842 842 841 841 840 839 838 837 835 834 834 834 833 831 830 829 828 827 826 825 825 824 822 821 819 817 815 813 811 809 806 804 802 799 797 795 793 791 789 788 786 784 782 780 779
839 839 840 840 840 841 841 842 842 842 843 844 844 844 844 845 845 845 845 846 845 846 845 844 844 843 842 841 840 840 840 840 840 839 839 838 837 836 833 832 833 833 831 829 828 827 826 825 825 824 823 822 821 818 816 815 813 810 808 806 803 801 799 797 795 793 791 789 787 785 783 781 779 778
836 837 837 837 838 838 839 839 840 840 841 841 841 841 842 842 843 843 843 843 844 844 843 842 843 842 840 839 839 839 839 839 839 838 838 837 836 836 834 832 832 832 831 829 827 827 826 825 825 824 823 822 820 818 816 815 813 810 808 806 803 801 798 796 794 792 790 788 786 784 782 780 778 777
833 834 834 835 835 836 836 837 837 837 838 838 838 839 839 840 840 841 841 841 841 842 841 841 841 841 839 838 838 838 837 837 837 837 837 836 835 835 834 832 831 831 831 829 827 827 826 825 825 824 823 822 820 818 817 815 813 811 809 806 803 800 797 795 792 790 788 787 785 783 781 779 777 776
830 830 831 832 832 833 833 834 834 834 835 835 836 836 836 837 838 838 839 839 839 839 839 839 839 839 838 836 836 836 836 836 836 836 835 835 834 834 833 832 831 830 830 829 828 827 826 825 824 823 823 822 820 818 817 815 813 811 808 805 802 799 797 794 791 789 787 785 783 781 779 777 776 774
826 827 828 829 829 830 830 831 832 832 832 832 833 833 834 834 835 835 836 836 837 837 837 837 836 836 836 835 834 834 835 834 835 834 834 834 833 833 832 831 830 830 829 829 827 826 825 824 824 823 822 821 819 818 817 815 812 810 807 804 801 799 796 793 790 788 786 784 782 780 778 776 775 773
823 824 825 825 826 826 827 827 828 829 829 830 830 830 831 831 831 832 832 833 834 835 835 835 834 834 834 834 833 833 833 833 833 833 833 832 832 832 831 830 830 829 829 828 827 826 825 824 823 823 822 821 819 818 816 814 812 809 806 803 801 798 796 793 790 788 785 783 781 779 777 775 773 772
820 821 822 822 822 823 823 824 825 826 826 827 827 828 828 828 828 829 829 830 831 831 832 832 831 832 832 832 832 832 832 831 831 831 831 831 830 830 829 828 828 828 827 826 826 825 825 824 822 821 821 820 818 817 816 813 810 808 806 803 801 798 796 793 790 787 785 783 780 778 776 774 772 771
817 818 819 819 819 819 820 820 821 823 824 824 825 825 825 825 825 825 826 827 828 828 829 829 830 830 831 831 831 831 830 830 830 830 829 829 828 828 828 827 826 826 826 825 825 825 824 823 822 820 820 819 818 817 814 812 810 808 806 804 801 798 796 793 790 787 785 782 779 777 775 773 771 770
814 815 815 816 816 816 816 817 818 820 821 822 822 822 822 822 822 822 823 824 825 826 826 827 828 828 829 829 829 829 828 828 828 828 827 826 826 827 826 825 824 825 824 824 823 823 823 823 821 820 818 817 817 816 814 811 810 808 806 804 801 798 795 793 790 787 784 781 779 776 774 772 770 768
811 811 812 813 813 813 813 813 815 817 818 819 819 819 819 820 819 819 820 821 822 823 824 825 826 826 827 827 827 826 826 825 825 825 824 824 825 824 824 823 823 823 822 822 822 822 822 821 820 819 818 817 817 816 814 812 810 808 806 803 801 797 794 792 789 786 783 781 778 776 774 771 769 767
807 808 808 809 810 809 809 810 811 813 815 816 816 816 817 817 816 815 817 818 819 820 821 822 823 824 824 824 824 824 823 823 822 822 822 822 823 822 821 821 822 821 821 821 820 820 820 820 819 818 817 817 817 816 814 811 810 807 805 802 800 797 794 791 789 786 783 780 778 776 774 771 769 766
803 804 804 805 805 806 806 807 808 809 811 812 812 813 814 813 812 813 815 816 817 818 819 820 821 821 821 822 822 822 821 821 820 820 820 821 821 820 820 820 820 820 819 819 819 819 819 819 818 817 816 817 817 816 814 812 810 808 805 802 799 796 793 790 788 786 783 781 778 776 774 772 769 767
799 800 800 800 801 802 803 804 805 806 807 808 809 809 810 809 810 811 813 814 815 816 817 817 818 818 819 819 819 820 819 819 819 819 819 819 819 819 818 818 819 819 818 818 818 818 818 818 817 816 816 816 816 815 814 812 811 809 806 803 800 796 793 790 788 785 783 781 778 776 774 773 771 768
795 796 796 796 797 798 800 801 802 803 804 805 806 806 806 807 809 810 811 812 813 814 814 815 815 816 816 817 817 818 818 818 818 818 818 818 817 817 817 817 818 818 817 817 817 817 817 816 816 815 815 815 815 814 813 812 811 809 807 804 801 798 795 791 788 786 783 781 779 777 775 773 771 770
791 791 792 793 794 796 797 799 800 801 802 803 803 804 805 806 808 809 810 810 811 812 812 812 812 813 814 814 815 815 816 816 816 816 816 816 816 816 816 816 816 816 816 816 817 817 816 815 815 815 814 814 814 813 813 812 811 809 806 804 802 799 796 793 790 787 784 782 780 778 775 773 771 770
786 787 788 789 791 792 794 796 797 798 799 800 801 802 803 805 806 807 808 808 809 809 809 809 809 810 810 811 811 812 813 814 814 813 813 814 814 814 814 814 814 815 815 815 816 816 815 815 814 814 813 812 812 813 814 813 812 809 805 802 801 799 797 794 791 788 785 783 780 778 775 773 771 770
782 783 784 786 787 789 791 792 794 795 796 798 799 800 802 803 803 804 805 806 806 807 806 806 806 806 807 808 809 810 811 811 811 811 811 811 812 812 812 812 813 813 814 814 815 815 814 814 813 813 812 811 811 812 814 814 812 809 806 802 800 798 797 795 792 789 786 783 781 779 777 775 773 771
778 780 781 783 784 786 787 789 790 792 793 795 797 798 799 800 800 801 802 803 803 803 803 803 803 803 805 806 807 807 808 808 808 809 809 810 810 810 811 811 812 813 813 813 813 813 813 813 813 812 811 810 811 812 813 813 812 810 807 804 800 798 797 795 793 790 788 785 783 782 780 778 776 773
775 777 779 780 781 782 784 785 787 788 790 793 794 795 796 797 797 798 799 799 800 800 800 800 801 802 803 803 804 805 806 806 807 807 808 809 809 810 810 810 811 812 813 813 812 813 813 813 812 811 809 809 810 812 812 812 811 809 807 805 802 800 798 796 793 791 789 787 785 783 781 779 777 775
773 775 776 778 779 780 781 782 783 785 787 789 790 792 793 794 795 795 796 796 797 797 798 798 799 800 800 801 802 804 805 805 806 806 807 808 809 809 809 810 810 811 812 812 812 812 812 812 811 810 808 808 810 811 811 811 810 808 807 805 803 801 799 796 794 792 790 788 786 784 782 780 778 776
771 773 774 775 776 778 779 780 780 782 783 785 787 788 789 790 791 791 792 793 794 794 795 795 795 795 796 798 800 801 802 804 805 805 806 807 808 808 809 809 809 810 810 810 811 811 811 811 810 809 808 808 809 810 810 810 809 808 806 805 803 801 799 797 794 792 790 788 786 784 783 781 779 777
770 771 772 773 775 776 776 777 777 778 780 781 783 784 785 786 787 787 788 789 789 789 790 790 790 792 793 794 795 797 799 802 804 805 805 806 807 807 807 808 808 808 808 809 809 810 810 810 809 808 808 808 809 809 809 809 808 807 806 804 802 801 799 797 795 793 790 788 787 785 784 782 780 778
768 769 770 771 773 774 774 775 775 776 777 778 778 780 781 782 782 783 784 784 784 785 785 786 788 790 791 792 793 794 796 798 801 802 803 804 805 807 807 807 807 807 808 808 808 809 809 809 808 808 807 808 809 808 808 807 807 806 805 804 802 800 799 797 795 793 791 789 788 786 785 783 781 779
763 765 766 768 770 771 771 771 771 772 772 773 774 775 776 777 779 782 782 780 779 779 780 782 784 786 788 789 790 790 792 794 796 799 801 803 805 808 809 809 809 808 808 807 807 807 808 808 807 807 807 808 809 808 807 806 805 805 804 803 802 800 799 797 795 794 791 789 788 787 786 784 782 780
759 761 763 765 767 769 769 770 770 771 772 772 773 774 775 776 779 779 775 772 772 773 775 777 780 782 784 786 786 787 789 791 793 796 799 802 805 808 811 811 811 810 809 807 806 806 806 807 807 806 807 808 808 808 805 804 804 803 802 802 801 799 799 797 795 793 791 789 788 787 787 786 784 782
756 759 762 765 768 770 772 772 773 774 774 775 777 778 777 776 773 769 766 767 771 773 774 774 775 776 779 781 783 784 786 787 789 792 794 796 798 800 803 806 809 810 808 806 805 805 805 805 805 805 805 806 807 806 804 802 802 801 800 800 799 798 798 797 794 792 790 789 788 788 787 787 785 783
751 753 756 757 759 760 761 762 764 766 768 772 776 777 774 770 766 763 764 768 770 770 772 773 773 774 776 778 780 783 784 786 788 789 790 790 791 793 795 798 803 807 806 804 803 803 803 803 803 803 803 803 803 803 801 800 799 799 798 798 798 797 797 796 794 792 790 789 788 788 787 787 786 784
742 744 745 746 746 746 749 753 757 761 763 766 769 770 767 764 761 761 762 764 766 768 770 771 772 773 774 775 778 780 782 784 786 788 788 788 788 789 790 793 798 802 802 801 800 800 801 801 801 801 801 801 801 801 800 799 798 797 796 796 796 796 795 794 793 791 790 789 788 787 787 787 786 784
735 737 739 739 740 742 747 752 756 758 759 760 762 763 761 758 757 758 759 761 764 766 767 768 770 771 773 774 776 778 779 781 783 786 787 787 787 787 788 790 794 797 798 798 798 798 799 799 799 799 799 799 800 799 798 797 796 794 794 794 794 794 794 793 792 791 790 789 788 787 786 786 785 784
731 733 735 737 739 742 748 753 755 755 755 755 756 756 755 755 756 758 759 761 763 764 765 766 767 769 771 773 775 776 778 779 781 783 784 785 786 786 787 788 790 792 794 795 796 796 797 797 798 798 798 797 797 797 796 795 794 793 792 792 792 792 792 792 791 790 789 788 787 786 785 785 784 783
730 732 735 737 739 742 746 750 751 750 749 750 751 751 751 753 755 758 759 760 761 762 764 765 766 767 769 772 774 775 777 778 779 781 782 783 783 784 785 786 787 789 791 792 793 794 795 795 796 796 796 795 795 794 793 792 792 791 791 791 790 790 790 790 789 789 788 788 787 786 785 785 784 783
731 733 735 736 738 741 744 746 746 745 745 745 747 749 750 751 754 757 759 760 761 762 763 765 766 767 768 770 772 774 775 777 778 779 781 782 782 782 783 784 785 787 789 790 791 792 793 793 793 793 793 794 793 792 791 790 790 789 789 789 788 788 788 788 787 787 787 787 786 785 785 784 783 782
729 731 733 734 736 738 740 742 742 742 742 743 745 747 749 751 752 755 757 760 761 763 764 766 766 767 768 769 771 772 774 775 777 778 780 781 782 782 783 783 785 786 788 789 790 790 790 790 790 791 791 792 792 791 790 789 788 788 787 787 786 786 785 785 785 785 785 785 785 784 784 784 783 782